Location: Newark
(39.0622°N, 106.5590°E)
Time: 12:28:33
(UTC+00:00)

Courier 1B - Pass Details

Date: 29 January 2020
Orbit: 962 x 1209 km, 28.3° (Epoch: 25 February)

Event Time Altitude Azimuth Distance (km) Brightness Sun altitude
Rises 23:18:00 0° 259° (W) 3,955 - -9.1°
Exits shadow 23:19:31 - 253° (WSW) 3,570 9.9 -8.8°
Reaches altitude 10° 23:22:01 10° 239° (WSW) 3,040 9.7 -8.3°
Maximum altitude 23:26:13 16° 205° (SSW) 2,660 9.7 -7.5°
Drops below altitude 10° 23:30:31 10° 171° (S) 3,109 10.5 -6.7°
Sets 23:34:44 0° 151° (SSE) 4,091 11.6 -6.0°
